Location: Newark
(8.1700°N, 77.4300°E)
Time: 10:48:24
(UTC+00:00)

ISS - Visible Passes

Search period start: 17 October 2019 00:00
Search period end: 27 October 2019 00:00
Orbit: 411 x 421 km, 51.6° (Epoch: 17 October)

Date Brightness Start Highest point End Pass type
(mag) Time Alt. Az. Time Alt. Az. Time Alt. Az.
18 Oct -0.5 00:04:32 10° SSE 00:06:21 14° SE 00:08:10 10° E visible
20 Oct -3.4 00:02:28 10° SSW 00:05:48 69° SE 00:09:08 10° NE visible
20 Oct -1.6 23:14:24 10° S 23:17:17 27° SE 23:20:12 10° ENE visible
21 Oct -0.2 22:29:48 11° ESE 22:29:48 11° ESE 22:30:13 10° E visible
22 Oct -2.4 00:02:50 11° WSW 00:05:18 22° NW 00:07:58 10° N visible
22 Oct -2.4 23:18:07 29° N 23:18:07 29° N 23:20:02 10° NNE visible
